Regional Weather Roundup
Issued by NWS Wakefield, VA

Home | Current Version | Previous Version | Text Only | Print | Product List | Glossary On
Versions: 1 2 3 4 5 6 7 8 9 10 11 12 13 14 15 16 17 18 19 20 21 22 23 24 25 26 27 28 29 30 31 32 33 34 35 36 37 38 39 40 41 42 43 44 45 46 47 48 49 50
850
ASUS41 KAKQ 221715
RWRAKQ

REGIONAL WEATHER ROUNDUP
NATIONAL WEATHER SERVICE WAKEFIELD VA
1200 PM EST SUN JAN 22 2017

Note: "fair" indicates few or no clouds below 12,000 feet with no
significant weather and/or obstructions to visibility. * = Denotes
station may not report precipitation (e.g., rain,snow,etc.),
thunder or fog.

VAZ042-051-052>054-056-221800-
NORTHERN VIRGINIA

CITY           SKY/WX    TMP DP  RH WIND       PRES   REMARKS
WASH NATIONAL  CLOUDY    50  48  93 N9        29.68F
DULLES         CLOUDY    48  45  89 N9        29.66F
FORT BELVOIR   CLOUDY    49  46  90 N6        29.64F
QUANTICO       CLOUDY    49  49 100 NE13      29.64F VSB 1
FREDERICKSBRG* CLOUDY    50  50 100 N3        29.65S
STAFFORD*      CLOUDY    48  48 100 N6        29.68F FOG
WARRENTON      CLOUDY    50  47  88 N5        29.65F
CULPEPER*      CLOUDY    50  50  99 N6        29.66R
MANASSAS*      CLOUDY   N/A N/A N/A CALM      29.67F FOG
LEESBURG*      CLOUDY    48  48 100 N7        29.67F
WINCHESTER     CLOUDY    45  45 100 NE3       29.67F FOG
FRONT ROYAL*   CLOUDY    45  45 100 CALM      29.66F
LURAY*         CLOUDY    46  46 100 NE5       29.64F
$$

VAZ048-049-060>072-079>083-221800-
CENTRAL AND SOUTH CENTRAL VIRGINIA

CITY           SKY/WX    TMP DP  RH WIND       PRES   REMARKS
RICHMOND       CLOUDY    49  49 100 NW6       29.64F FOG
CHESTERFIELD*  CLOUDY    50  36  57 NE8       29.61F
PETERSBURG*    CLOUDY    50  48  93 NE8       29.60F FOG
HANOVER        FOG       49  48  97 VRB3      29.65F VSB 1
TAPPAHANNOCK*  CLOUDY    50  50 100 N3        29.64S
QUINTON*       CLOUDY    49  49 100 NW5       29.63F FOG
CHARLOTTSVILLE CLOUDY    52  49  89 NE6       29.62F
GORDONSVILLE*  CLOUDY    50  49  97 NE5       29.63F
ORANGE*          N/A     50  50 100 CALM      29.67F
LOUISA*        CLOUDY    52  52 100 NE7       29.63F
BUMPASS*       CLOUDY    49  49 100 N3        29.66S
FARMVILLE*     FOG       51  51 100 NE7       29.59F VSB 3/4
CREWE*         CLOUDY    50  50 100 N5        29.57F VSB 3/4
FORT PICKETT*  CLOUDY   N/A N/A N/A NE10      29.57F VSB 1/2
CHASE CITY*    CLOUDY    51  49  94 CALM      29.61R
CLARKSVILLE*   CLOUDY    52  52 100 CALM      29.61R
SOUTH HILL*    CLOUDY    51  51 100 NE3       29.64F
LAWRENCEVILLE* CLOUDY    52  51  97 NE8       29.55F
EMPORIA*       CLOUDY    50  50 100 N7        29.59F
$$

VAZ088>098-221800-
SOUTHEAST VIRGINIA

CITY           SKY/WX    TMP DP  RH WIND       PRES   REMARKS
NORFOLK        CLOUDY    51  50  96 VRB3      29.61F FOG
VIRGINIA BEACH CLOUDY    51  49  92 NW10      29.60F FOG
NORFOLK NAVAL  FOG       51  50  96 NW7       29.63F VSB 1/4
WEST POINT*    CLOUDY    50  50  99 N3        29.65S
SALUDA*        CLOUDY    48  48 100 NW5       29.62S
NEWPORT NEWS   FOG       51  50  96 NW3       29.63F VSB 1
LANGLEY AFB    CLOUDY    51  51 100 NW7       29.62S FOG
FORT EUSTIS    FOG       50  48  93 NW6       29.59F VSB 1
WILLIAMSBURG*  CLOUDY    52  52 100 CALM      29.64F VSB 1/2
HR EXEC AP*    CLOUDY    54  50  87 CALM      29.60F VSB 1
FRANKLIN*      FOG       51  51  98 N6        29.61F VSB 1
US460-WAKEFLD  FOG       51  50  96 N3        29.62F VSB 3/4
$$

VAZ020-022-025-037-045-221800-
WEST CENTRAL AND SOUTHWEST VIRGINIA

CITY           SKY/WX    TMP DP  RH WIND       PRES   REMARKS
STAUNTON*      CLOUDY    46  46  99 N6        29.64F FOG
WAYNESBORO*    CLOUDY    46  45  96 N3        29.61F
HOT SPRINGS VA FOG       46  46 100 SE6       29.62R VSB 1/2
LYNCHBURG      CLOUDY    50  49  96 N5        29.64R FOG
DANVILLE       CLOUDY    52  52 100 NE5       29.61F FOG
SOUTH BOSTON*  CLOUDY    52  51  95 E3        29.60F
MARTINSVILLE   CLOUDY    51  50  96 CALM      29.64F
ROANOKE        CLOUDY    52  51  97 CALM      29.63S
BLACKSBURG     CLOUDY    51  51  98 CALM      29.65F
DUBLIN*        DRIZZLE   53  53 100 E3        29.62F
MARION*        CLOUDY    51  50  96 NE10      29.61F
HILLSVILLE*    CLOUDY    50  50 100 CALM      29.59F FOG
RICHLANDS*     CLOUDY    55  48  79 E8        29.55F
WISE*          CLOUDY    54  54 100 SE5       29.54F
ABINGDON*      CLOUDY    61  53  72 E5        29.53F
$$

MDZ021>025-VAZ099-100-221800-
SOUTHERN MARYLAND AND THE DELMARVA PENINSULA

CITY           SKY/WX    TMP DP  RH WIND       PRES   REMARKS
PATUXENT RIVER DRZL/FOG  47  47 100 N10       29.63F VSB 1/4
BAY BRIDGE APT FOG       43  43 100 N8        29.69F VSB 1/4
LEONARDTOWN    CLOUDY    46  45  93 CALM      29.65F VSB 1
DOVER          CLOUDY    48  48 100 N10       29.65F FOG
GEORGETOWN     FOG       49  48  97 N8        29.64F VSB 3/4
EASTON         NOT AVBL
CAMBRIDGE      CLOUDY    46  46 100 N6        29.64F VSB 3/4
SALISBURY      FOG       49  49 100 N7        29.62F VSB 1/2
OCEAN CITY     CLOUDY    50  50 100 N10       29.62F FOG
WALLOPS ISLAND CLOUDY    56  56 100 N13       29.58F
ACCOMACK*      CLOUDY    49  48  99 N7        29.59F FOG
$$

NCZ012>017-030>032-221800-
NORTH CENTRAL AND EASTERN NORTH CAROLINA

CITY           SKY/WX    TMP DP  RH WIND       PRES   REMARKS
ROANOKE RAPIDS CLOUDY    52  52 100 N3        29.57F
RALEIGH        FOG       54  53  97 NE5       29.59R VSB 1/4
ELIZABETH CITY CLOUDY    54  53  97 NW5       29.61F FOG
AHOSKIE*         N/A     52  51  99 NE7       29.58F
EDENTON*       CLOUDY    57  57 100 CALM      29.60F
CURRITUCK*     CLOUDY    54  54 100 W3        29.61F
KILL DEVIL HLS NOT AVBL
MANTEO         CLOUDY    56  56 100 W3        29.62F FOG
CAPE HATTERAS  LGT RAIN  60  57  89 W8        29.61F FOG
TARBORO*       NOT AVBL
GOLDSBORO      CLOUDY    59  59 100 NW6       29.57F
WASHINGTON     CLOUDY    60  56  87 CALM        N/A
GREENVILLE     CLOUDY    57  55  94 E10       29.56F FOG
NEW BERN       CLOUDY    62  59  90 SE6       29.59F
WILMINGTON     CLOUDY    61  60  97 W5        29.60R
$$

VAZ048-221800-
ELSEWHERE

CITY           SKY/WX    TMP DP  RH WIND       PRES   REMARKS
HARRISBURG PA  FOG       44  44 100 NW3       29.70F VSB 1
BALTIMORE      CLOUDY    49  48  97 CALM      29.68F
ANNAPOLIS      CLOUDY    47  45  93 N5        29.68F FOG
ANDREWS AFB    CLOUDY    47  47  99 N9        29.66F FOG
PHILADELPHIA   CLOUDY    49  47  93 N8        29.69F FOG
HENDERSON NC   CLOUDY    49  49  98 CALM      29.61R FOG
GREENSBORO     CLOUDY    53  53 100 NE6       29.58F
ROCKY MOUNT    CLOUDY    54  54 100 N6        29.59F
$$

VAZ100-221800-
MARINE

STATION/POSITION TIME  TEMP    WIND        PRES    WAVE   SWELL
                       AIR SEA DIR/SP/G            HT/PER HT/PER
                 (UTC) (F)     (DEG/KT/KT) (MB)    (FT/S) (FT/S)
CAPE MAY NJ      1648   50 41   30/  5/  9 1003.7F
LEWES DE         1648   43 42  340/  8/ 10 1004.0F
OCEAN-CITY-INLET 1648   47 43   20/ 12/ 14 1003.3F
WACHAPREAGUE VA  1648   49 49  330/  3/  6 1001.8F
THOMAS POINT MD  1700   44 40  360/ 10/ 10   N/A
GOOSES REEF MD   1650   42      30/ 10/ 12 1005.1F
COVE POINT MD    1648   42     360/ 12/ 14 1004.6F
SOLOMONS ISLAND  1648   45 42  360/ 11/ 14   N/A
BISHOPS HEAD MD  1648   46 44   10/  8/ 12 1003.5F
PINEY POINT MD   1648           30/ 12/ 14   N/A
POTOMAC MD       1650   45      10/ 12/ 17 1002.2F
CAMBRIDGE MD     1648   46 40  330/  6/  7 1003.4F
LEWISETTA VA     1648   46 44   10/ 11/ 14 1002.8F
RAPPAHANNOCK LGT 1648          340/ 16/ 17 1003.1F
STINGRAY PT      1650   44     360/ 12/ 12 1003.3F
YORK RVR RNG VA  1648   47     270/  9/ 10 1002.5F
YORKTOWN VA      1648   49 45  290/  5/  5 1003.1F
JAMESTOWN VA     1650   47     300/  6/  8   N/A
DOMINION TERM VA 1648   47     320/  7/  7 1003.2F
CHES BAY BRIDGE  1648   48 44  310/  9/ 10 1002.6F
CAPE HENRY VA    1648   49     300/ 10/ 13   N/A
WILLOUBY STN VA  1648   48     280/  8/  8 1003.9F
S CRANEY ISL VA  1648   49     300/  6/  9 1002.8F
CAPE HENRY BUOY  1642      48                N/A     4/ 7   2/13
OFFSHORE WE BUOY 1651      49                N/A     5/13   2/13
64NM E OF VA BCH 1650   52 57  280/ 14/ 16 1001.7F   6/ 7   5/ 7
DUCK PIER NC     1648   53 46  290/  7/  8 1002.0F
44100 DUCK FRF   1635      47                N/A     4/13   2/13
44056 DUCK FRF   1630      47                N/A     3/11   2/11
OREGON INLET NC  1642   55 50  180/  3/  4 1003.0F
HATTERAS NC      1648   59 54  230/  7/ 10 1002.8F
DIAMOND SHLS NC  1650   64 73  260/ 12/ 14 1003.5F   5/11   3/11
CAPE LOOKOUT NC  1600   59     190/  6/  6 1004.2F
$$




USA.gov is the U.S. government's official web portal to all federal, state and local government web resources and services.